| time (UTC) | temp C | wind direction | speed KPH | gust KPH | rain 1hr cm | rain 24hr cm | rain mn cm | humidity % | barometer mb |
| 20260504110431 | 8 | 178 | 12.9 | 17.7 | 0.00 | 0.00 | 0.00 | 72 | 1007.8 |
| 20260504100430 | 8 | 172 | 12.9 | 19.3 | 0.00 | 0.00 | 0.00 | 75 | 1007.7 |
| 20260504081919 | 7 | 175 | 9.7 | 14.5 | 0.00 | 0.00 | 0.00 | 78 | 1008.1 |
| 20260504081420 | 7 | 174 | 9.7 | 12.9 | 0.00 | 0.00 | 0.00 | 78 | 1008.1 |
| 20260504080920 | 7 | 175 | 9.7 | 16.1 | 0.00 | 0.00 | 0.00 | 78 | 1008.1 |
| 20260504080419 | 7 | 173 | 8.0 | 16.1 | 0.00 | 0.00 | 0.00 | 78 | 1008.2 |
| 20260504050408 | 7 | 185 | 6.4 | 9.7 | 0.00 | 0.00 | 0.00 | 65 | 1008.4 |
| 20260504045906 | 7 | 182 | 4.8 | 8.0 | 0.00 | 0.00 | 0.00 | 63 | 1008.5 |
| 20260504045406 | 7 | 176 | 4.8 | 8.0 | 0.00 | 0.00 | 0.00 | 62 | 1008.5 |
| 20260504044908 | 7 | 175 | 4.8 | 8.0 | 0.00 | 0.00 | 0.00 | 61 | 1008.6 |
| 20260504044631 | 7 | 175 | 3.2 | 6.4 | 0.00 | 0.00 | 0.00 | 60 | 1008.6 |
| 20260504044134 | 7 | 177 | 3.2 | 6.4 | 0.00 | 0.00 | 0.00 | 60 | 1008.6 |
| 20260504043402 | 7 | 179 | 3.2 | 4.8 | 0.00 | 0.00 | 0.00 | 59 | 1008.7 |
| 20260504043121 | 7 | 178 | 3.2 | 8.0 | 0.00 | 0.00 | 0.00 | 58 | 1008.7 |
| 20260504042403 | 7 | 176 | 3.2 | 8.0 | 0.00 | 0.00 | 0.00 | 57 | 1008.8 |
| 20260504041903 | 7 | 174 | 3.2 | 8.0 | 0.00 | 0.00 | 0.00 | 56 | 1008.8 |
| 20260504041624 | 7 | 175 | 3.2 | 8.0 | 0.00 | 0.00 | 0.00 | 57 | 1008.8 |
| 20260504040902 | 7 | 175 | 4.8 | 8.0 | 0.00 | 0.00 | 0.00 | 56 | 1008.7 |
| 20260504040403 | 7 | 174 | 4.8 | 8.0 | 0.00 | 0.00 | 0.00 | 56 | 1008.7 |
| 20260504035904 | 7 | 175 | 3.2 | 6.4 | 0.00 | 0.00 | 0.00 | 54 | 1008.8 |
| 20260504035358 | 7 | 177 | 1.6 | 4.8 | 0.00 | 0.00 | 0.00 | 56 | 1008.7 |
| 20260504034856 | 7 | 178 | 1.6 | 4.8 | 0.00 | 0.00 | 0.00 | 54 | 1008.7 |
| 20260504034357 | 7 | 178 | 3.2 | 4.8 | 0.00 | 0.00 | 0.00 | 54 | 1008.7 |
| 20260504033858 | 7 | 176 | 3.2 | 8.0 | 0.00 | 0.00 | 0.00 | 54 | 1008.7 |
| 20260504033357 | 7 | 179 | 4.8 | 8.0 | 0.00 | 0.00 | 0.00 | 53 | 1008.7 |
| 20260504032857 | 7 | 178 | 4.8 | 8.0 | 0.00 | 0.00 | 0.00 | 54 | 1008.8 |
| 20260504032356 | 7 | 194 | 3.2 | 8.0 | 0.00 | 0.00 | 0.00 | 56 | 1008.8 |
| 20260504031857 | 7 | 193 | 4.8 | 6.4 | 0.00 | 0.00 | 0.00 | 54 | 1008.7 |
| 20260504031358 | 7 | 189 | 3.2 | 6.4 | 0.00 | 0.00 | 0.00 | 56 | 1008.7 |
| 20260504030858 | 7 | 189 | 3.2 | 6.4 | 0.00 | 0.00 | 0.00 | 57 | 1008.7 |
| 20260504030400 | 7 | 187 | 3.2 | 4.8 | 0.00 | 0.00 | 0.00 | 56 | 1008.8 |
| 20260504025901 | 7 | 188 | 3.2 | 4.8 | 0.00 | 0.00 | 0.00 | 56 | 1008.7 |
| 20260504025359 | 6 | 188 | 3.2 | 4.8 | 0.00 | 0.00 | 0.00 | 56 | 1008.7 |
| 20260504024859 | 6 | 189 | 3.2 | 4.8 | 0.00 | 0.00 | 0.00 | 55 | 1008.7 |
| 20260504024401 | 7 | 189 | 3.2 | 6.4 | 0.00 | 0.00 | 0.00 | 54 | 1008.6 |
| 20260504023858 | 7 | 190 | 3.2 | 6.4 | 0.00 | 0.00 | 0.00 | 52 | 1008.6 |
| 20260504023357 | 7 | 170 | 1.6 | 6.4 | 0.00 | 0.00 | 0.00 | 50 | 1008.6 |
| 20260504023124 | 7 | 170 | 1.6 | 3.2 | 0.00 | 0.00 | 0.00 | 49 | 1008.7 |
| 20260504022352 | 7 | 170 | 0.0 | 3.2 | 0.00 | 0.00 | 0.00 | 48 | 1008.7 |
| 20260504021852 | 7 | 170 | 0.0 | 1.6 | 0.00 | 0.00 | 0.00 | 48 | 1008.8 |
| 20260504021351 | 7 | 170 | 0.0 | 1.6 | 0.00 | 0.00 | 0.00 | 47 | 1008.7 |
| 20260504020850 | 7 | 170 | 0.0 | 1.6 | 0.00 | 0.00 | 0.00 | 47 | 1008.7 |
| 20260504020352 | 7 | 170 | 0.0 | 1.6 | 0.00 | 0.00 | 0.00 | 46 | 1008.7 |
| 20260504020115 | 7 | 170 | 0.0 | 1.6 | 0.00 | 0.00 | 0.00 | 46 | 1008.7 |
| 20260504015350 | 7 | 170 | 0.0 | 1.6 | 0.00 | 0.00 | 0.00 | 45 | 1008.8 |
| 20260504014850 | 7 | 170 | 0.0 | 6.4 | 0.00 | 0.00 | 0.00 | 45 | 1008.8 |
| 20260504014347 | 8 | 170 | 0.0 | 6.4 | 0.00 | 0.00 | 0.00 | 45 | 1008.8 |
| 20260504013848 | 8 | 169 | 0.0 | 3.2 | 0.00 | 0.00 | 0.00 | 44 | 1008.8 |
| 20260504013342 | 8 | 170 | 0.0 | 3.2 | 0.00 | 0.00 | 0.00 | 43 | 1008.7 |
| 20260504012842 | 8 | 166 | 0.0 | 3.2 | 0.00 | 0.00 | 0.00 | 43 | 1008.8 |
| 20260504012341 | 8 | 166 | 0.0 | 0.0 | 0.00 | 0.00 | 0.00 | 43 | 1008.8 |
| 20260504011838 | 8 | 166 | 0.0 | 0.0 | 0.00 | 0.00 | 0.00 | 43 | 1008.7 |
| 20260504011558 | 8 | 166 | 0.0 | 3.2 | 0.00 | 0.00 | 0.00 | 43 | 1008.7 |
| 20260504010838 | 8 | 166 | 0.0 | 3.2 | 0.00 | 0.00 | 0.00 | 43 | 1008.7 |
| 20260504010339 | 8 | 166 | 0.0 | 6.4 | 0.00 | 0.00 | 0.00 | 43 | 1008.6 |
| 20260504010059 | 8 | 166 | 1.6 | 6.4 | 0.00 | 0.00 | 0.00 | 43 | 1008.5 |
| 20260504005340 | 8 | 34 | 1.6 | 6.4 | 0.00 | 0.00 | 0.00 | 45 | 1008.5 |
| 20260504004838 | 8 | 162 | 1.6 | 6.4 | 0.00 | 0.00 | 0.00 | 43 | 1008.4 |
| 20260504004338 | 8 | 210 | 1.6 | 9.7 | 0.00 | 0.00 | 0.00 | 43 | 1008.3 |
| 20260504003837 | 8 | 166 | 1.6 | 9.7 | 0.00 | 0.00 | 0.00 | 43 | 1008.3 |
| 20260504003556 | 8 | 30 | 1.6 | 6.4 | 0.00 | 0.00 | 0.00 | 45 | 1008.2 |
| 20260504002838 | 8 | 298 | 1.6 | 6.4 | 0.00 | 0.00 | 0.00 | 44 | 1008.1 |
| 20260504002336 | 8 | 205 | 0.0 | 4.8 | 0.00 | 0.00 | 0.00 | 45 | 1008.0 |
| 20260504002100 | 8 | 165 | 0.0 | 4.8 | 0.00 | 0.00 | 0.00 | 47 | 1008.0 |
| 20260504001334 | 8 | 329 | 0.0 | 3.2 | 0.00 | 0.00 | 0.00 | 47 | 1008.0 |
| 20260504000335 | 8 | 338 | 1.6 | 3.2 | 0.00 | 0.00 | 0.00 | 48 | 1007.9 |
| 20260503235836 | 8 | 340 | 1.6 | 3.2 | 0.00 | 0.00 | 0.00 | 47 | 1007.8 |
| 20260503235336 | 9 | 339 | 1.6 | 3.2 | 0.00 | 0.00 | 0.00 | 46 | 1007.7 |
| 20260503234839 | 9 | 339 | 3.2 | 6.4 | 0.00 | 0.00 | 0.00 | 46 | 1007.6 |
| 20260503234334 | 9 | 337 | 3.2 | 6.4 | 0.00 | 0.00 | 0.00 | 45 | 1007.6 |
| 20260503233836 | 9 | 15 | 3.2 | 8.0 | 0.00 | 0.00 | 0.00 | 48 | 1007.5 |
| 20260503233333 | 10 | 31 | 4.8 | 8.0 | 0.00 | 0.00 | 0.00 | 44 | 1007.3 |
| 20260503232832 | 10 | 17 | 4.8 | 11.3 | 0.00 | 0.00 | 0.00 | 44 | 1007.4 |
| 20260503232558 | 10 | 28 | 6.4 | 11.3 | 0.00 | 0.00 | 0.00 | 45 | 1007.3 |
| 20260503231828 | 10 | 9 | 6.4 | 14.5 | 0.00 | 0.00 | 0.00 | 44 | 1007.3 |
| 20260503231549 | 10 | 9 | 8.0 | 14.5 | 0.00 | 0.00 | 0.00 | 44 | 1007.3 |
| 20260503231039 | 11 | 15 | 9.7 | 19.3 | 0.00 | 0.00 | 0.00 | 43 | 1007.2 |
| 20260503230322 | 11 | 9 | 9.7 | 19.3 | 0.00 | 0.00 | 0.00 | 43 | 1007.1 |
| 20260503225824 | 11 | 28 | 6.4 | 16.1 | 0.00 | 0.00 | 0.00 | 42 | 1007.2 |
| 20260503225324 | 11 | 348 | 4.8 | 11.3 | 0.00 | 0.00 | 0.00 | 43 | 1007.1 |
| 20260503225053 | 11 | 26 | 6.4 | 14.5 | 0.00 | 0.00 | 0.00 | 42 | 1007.1 |
| 20260503224322 | 11 | 30 | 6.4 | 14.5 | 0.00 | 0.00 | 0.00 | 44 | 1007.1 |
| 20260503223824 | 11 | 31 | 8.0 | 14.5 | 0.00 | 0.00 | 0.00 | 42 | 1007.1 |
| 20260503223322 | 11 | 9 | 9.7 | 24.1 | 0.00 | 0.00 | 0.00 | 40 | 1007.1 |
| 20260503222822 | 12 | 9 | 8.0 | 24.1 | 0.00 | 0.00 | 0.00 | 39 | 1007.1 |
| 20260503222320 | 12 | 46 | 6.4 | 19.3 | 0.00 | 0.00 | 0.00 | 39 | 1007.1 |
| 20260503221819 | 12 | 346 | 6.4 | 17.7 | 0.00 | 0.00 | 0.00 | 37 | 1007.2 |
| 20260503221320 | 12 | 103 | 6.4 | 19.3 | 0.00 | 0.00 | 0.00 | 39 | 1007.2 |
| 20260503221043 | 12 | 9 | 9.7 | 19.3 | 0.00 | 0.00 | 0.00 | 40 | 1007.1 |
| 20260503220320 | 13 | 49 | 11.3 | 20.9 | 0.00 | 0.00 | 0.00 | 39 | 1007.2 |
| 20260503220047 | 13 | 17 | 11.3 | 20.9 | 0.00 | 0.00 | 0.00 | 39 | 1007.1 |
| 20260503215308 | 13 | 28 | 8.0 | 20.9 | 0.00 | 0.00 | 0.00 | 38 | 1007.1 |
| 20260503214801 | 13 | 314 | 6.4 | 17.7 | 0.00 | 0.00 | 0.00 | 39 | 1007.3 |
| 20260503214255 | 13 | 50 | 6.4 | 17.7 | 0.00 | 0.00 | 0.00 | 38 | 1007.2 |
| 20260503213750 | 13 | 259 | 8.0 | 17.7 | 0.00 | 0.00 | 0.00 | 39 | 1007.3 |
| 20260503213244 | 13 | 348 | 4.8 | 19.3 | 0.00 | 0.00 | 0.00 | 39 | 1007.3 |
| 20260503212738 | 13 | 273 | 4.8 | 19.3 | 0.00 | 0.00 | 0.00 | 38 | 1007.3 |
| 20260503212231 | 13 | 326 | 6.4 | 17.7 | 0.00 | 0.00 | 0.00 | 39 | 1007.3 |
| 20260503211726 | 12 | 194 | 4.8 | 16.1 | 0.00 | 0.00 | 0.00 | 41 | 1007.2 |
| 20260503211704 | 12 | 143 | 3.2 | 16.1 | 0.00 | 0.00 | 0.00 | 45 | 1007.2 |
| 20260503210715 | 11 | 24 | 3.2 | 11.3 | 0.00 | 0.00 | 0.00 | 42 | 1007.3 |
| 20260503210215 | 11 | 340 | 4.8 | 12.9 | 0.00 | 0.00 | 0.00 | 44 | 1007.3 |
| 20260503205940 | 11 | 257 | 4.8 | 14.5 | 0.00 | 0.00 | 0.00 | 41 | 1007.3 |
| 20260503205215 | 11 | 323 | 4.8 | 16.1 | 0.00 | 0.00 | 0.00 | 44 | 1007.4 |
| 20260503204710 | 11 | 322 | 4.8 | 16.1 | 0.00 | 0.00 | 0.00 | 42 | 1007.3 |
| 20260503204204 | 11 | 151 | 3.2 | 14.5 | 0.00 | 0.00 | 0.00 | 44 | 1007.3 |
| 20260503203703 | 11 | 37 | 3.2 | 14.5 | 0.00 | 0.00 | 0.00 | 44 | 1007.3 |
| 20260503203203 | 11 | 159 | 6.4 | 17.7 | 0.00 | 0.00 | 0.00 | 44 | 1007.3 |
| 20260503202702 | 11 | 265 | 9.7 | 17.7 | 0.00 | 0.00 | 0.00 | 43 | 1007.4 |
| 20260503202204 | 11 | 26 | 6.4 | 17.7 | 0.00 | 0.00 | 0.00 | 44 | 1007.4 |
| 20260503201926 | 11 | 145 | 3.2 | 14.5 | 0.00 | 0.00 | 0.00 | 45 | 1007.5 |
| 20260503201420 | 11 | 323 | 3.2 | 9.7 | 0.00 | 0.00 | 0.00 | 44 | 1007.4 |
| 20260503200700 | 11 | 263 | 3.2 | 9.7 | 0.00 | 0.00 | 0.00 | 46 | 1007.4 |
| 20260503200420 | 11 | 11 | 4.8 | 11.3 | 0.00 | 0.00 | 0.00 | 49 | 1007.5 |
| 20260503195701 | 11 | 19 | 3.2 | 11.3 | 0.00 | 0.00 | 0.00 | 47 | 1007.5 |
| 20260503195202 | 11 | 16 | 3.2 | 11.3 | 0.00 | 0.00 | 0.00 | 48 | 1007.5 |
| 20260503194700 | 11 | 121 | 4.8 | 12.9 | 0.00 | 0.00 | 0.00 | 43 | 1007.6 |
| 20260503194201 | 11 | 29 | 4.8 | 16.1 | 0.00 | 0.00 | 0.00 | 45 | 1007.7 |
| 20260503193701 | 11 | 336 | 4.8 | 16.1 | 0.00 | 0.00 | 0.00 | 47 | 1007.7 |
| 20260503193201 | 11 | 331 | 4.8 | 12.9 | 0.00 | 0.00 | 0.00 | 47 | 1007.8 |
| 20260503192701 | 10 | 17 | 4.8 | 14.5 | 0.00 | 0.03 | 0.00 | 46 | 1007.8 |
| 20260503192202 | 10 | 295 | 8.0 | 19.3 | 0.00 | 0.03 | 0.00 | 46 | 1007.9 |
| 20260503191656 | 10 | 338 | 9.7 | 22.5 | 0.00 | 0.03 | 0.00 | 48 | 1008.0 |
| 20260503191150 | 10 | 13 | 4.8 | 22.5 | 0.00 | 0.05 | 0.00 | 47 | 1008.0 |
| 20260503190643 | 10 | 314 | 4.8 | 16.1 | 0.00 | 0.05 | 0.00 | 47 | 1008.1 |
| 20260503190138 | 11 | 348 | 4.8 | 16.1 | 0.00 | 0.05 | 0.00 | 45 | 1008.1 |
| 20260503185633 | 11 | 254 | 3.2 | 12.9 | 0.00 | 0.05 | 0.00 | 46 | 1008.1 |
| 20260503185134 | 11 | 296 | 3.2 | 12.9 | 0.00 | 0.05 | 0.00 | 48 | 1008.2 |
| 20260503184634 | 11 | 115 | 4.8 | 16.1 | 0.00 | 0.05 | 0.00 | 47 | 1008.2 |
| 20260503184406 | 11 | 333 | 6.4 | 16.1 | 0.00 | 0.05 | 0.00 | 48 | 1008.2 |
| 20260503183631 | 10 | 254 | 11.3 | 27.4 | 0.00 | 0.05 | 0.00 | 51 | 1008.3 |
| 20260503183357 | 10 | 26 | 9.7 | 27.4 | 0.00 | 0.05 | 0.00 | 47 | 1008.4 |
| 20260503182629 | 10 | 29 | 4.8 | 12.9 | 0.00 | 0.05 | 0.00 | 45 | 1008.4 |
| 20260503182350 | 10 | 332 | 6.4 | 14.5 | 0.00 | 0.05 | 0.00 | 46 | 1008.4 |
| 20260503181630 | 10 | 9 | 9.7 | 19.3 | 0.00 | 0.05 | 0.00 | 48 | 1008.5 |
| 20260503181352 | 10 | 21 | 8.0 | 19.3 | 0.00 | 0.05 | 0.00 | 50 | 1008.5 |
| 20260503180628 | 10 | 35 | 8.0 | 19.3 | 0.00 | 0.05 | 0.00 | 48 | 1008.5 |
| 20260503180128 | 10 | 329 | 8.0 | 19.3 | 0.00 | 0.05 | 0.00 | 48 | 1008.6 |
| 20260503175626 | 10 | 33 | 8.0 | 17.7 | 0.00 | 0.05 | 0.00 | 47 | 1008.6 |
| 20260503175127 | 10 | 291 | 9.7 | 19.3 | 0.00 | 0.05 | 0.00 | 47 | 1008.6 |
| 20260503174850 | 10 | 9 | 8.0 | 19.3 | 0.00 | 0.05 | 0.00 | 48 | 1008.6 |
| 20260503174122 | 10 | 349 | 4.8 | 14.5 | 0.00 | 0.05 | 0.00 | 51 | 1008.6 |
| 20260503173622 | 10 | 57 | 4.8 | 16.1 | 0.00 | 0.05 | 0.00 | 51 | 1008.6 |
| 20260503173121 | 10 | 315 | 3.2 | 16.1 | 0.00 | 0.05 | 0.00 | 49 | 1008.6 |
| 20260503172621 | 10 | 319 | 3.2 | 9.7 | 0.00 | 0.05 | 0.00 | 50 | 1008.7 |
| 20260503172121 | 10 | 292 | 4.8 | 22.5 | 0.00 | 0.05 | 0.00 | 49 | 1008.7 |
| 20260503171622 | 10 | 298 | 6.4 | 22.5 | 0.00 | 0.05 | 0.00 | 48 | 1008.7 |
| 20260503171121 | 10 | 142 | 8.0 | 22.5 | 0.00 | 0.05 | 0.00 | 51 | 1008.7 |
| 20260503170622 | 10 | 310 | 8.0 | 22.5 | 0.00 | 0.05 | 0.00 | 49 | 1008.8 |
| 20260503170121 | 9 | 36 | 8.0 | 17.7 | 0.00 | 0.05 | 0.00 | 49 | 1008.8 |
| 20260503160111 | 8 | 33 | 6.4 | 16.1 | 0.00 | 0.05 | 0.00 | 54 | 1009.0 |
| 20260503150603 | 8 | 27 | 8.0 | 14.5 | 0.00 | 0.05 | 0.00 | 65 | 1009.3 |
| 20260503140245 | 9 | 304 | 8.0 | 19.3 | 0.00 | 0.05 | 0.00 | 65 | 1009.6 |
| 20260503131016 | 8 | 312 | 4.8 | 14.5 | 0.00 | 0.05 | 0.00 | 75 | 1009.8 |
| 20260503130511 | 7 | 350 | 8.0 | 14.5 | 0.00 | 0.05 | 0.00 | 76 | 1009.8 |